Location: Gro�bocka
(50.8204°N, 11.9702°E)
Time: 14:43:42
(UTC+00:00)

ARGOS - Pass Details

Date: 29 October 2020
Orbit: 820 x 835 km, 98.4° (Epoch: 28 November)

Event Time Altitude Azimuth Distance (km) Brightness Sun altitude
Exits shadow 18:17:19 27° 162° (SSE) 1,563 4.3 -23.5°
Maximum altitude 18:20:26 88° 75° (ENE) 844 3.1 -24.0°
Drops below altitude 10° 18:25:55 10° 346° (NNW) 2,460 5.9 -24.8°
Sets 18:28:17 0° 346° (NNW) 3,398 6.6 -25.2°
